SCP
2 2 2 1 1 1 1 1 1 1 1 0 0 0 0 0 1 1 1 1 1 1 1 1 1 1 1 1 1 1 1 1 0 0 0 1 1 1
2 2 2 2 2 1 1 1 1 1 1 1 0 0 0 0 1 1 1 1 1 1 1 1 1 1 1 1 0 0 0 0 0 0 0 0 1 1
2 2 2 2 2 2 1 2 2 1 1 1 1 0 0 0 0 1 1 1 1 1 0 0 0 0 0 0 0 0 0 0 0 0 0 0 0 1
2 2 2 2 2 2 2 2 2 2 2 1 1 1 1 0 1 1 1 1 1 1 0 0 0 0 0 0 0 0 0 0 0 0 0 0 0 0
3 2 2 2 2 2 2 2 2 2 2 2 2 1 1 1 1 1 1 1 1 1 1 0 0 0 0 0 0 0 0 0 0 0 0 0 0 0
4 3 3 2 2 2 2 2 3 3 3 3 2 2 2 2 2 2 2 2 1 1 1 1 1 0 0 0 0 0 0 0 0 0 0 0 0 0
5 4 3 3 2 2 2 2 2 2 2 2 2 2 1 2 3 3 3 2 1 1 0 1 1 0 0 0 0 0 0 0 0 0 0 0 0 0
5 5 4 3 2 2 2 2 1 1 1 2 2 2 1 1 2 3 3 3 2 1 0 0 0 0 0 0 0 0 0 0 0 0 0 0 0 0
6 6 5 4 2 2 2 2 2 1 1 1 1 1 1 1 2 3 3 3 2 1 0 0 0 0 1 1 0 0 0 0 0 0 0 0 0 0
6 7 6 5 3 2 2 2 2 2 2 2 2 1 1 1 2 3 3 3 2 1 0 0 0 0 1 1 0 0 0 0 0 0 0 0 0 0
7 7 7 6 3 2 2 2 3 3 2 2 2 2 1 1 1 2 3 3 2 1 0 0 0 0 1 1 0 0 0 0 0 0 0 0 0 0
8 8 7 5 2 1 2 2 3 3 3 2 2 1 1 1 1 1 2 2 2 1 0 0 0 0 0 1 0 0 0 0 0 0 0 0 0 0
9 8 7 4 1 1 1 2 2 2 3 3 3 2 2 2 2 1 2 2 2 1 1 0 0 0 0 1 1 0 0 0 0 0 0 0 0 0
9 9 6 3 1 0 1 1 1 1 2 3 4 4 4 3 3 2 1 2 2 1 1 1 1 0 1 1 1 0 0 0 0 0 0 0 0 0
8 8 5 2 1 0 0 0 1 1 1 2 3 4 4 4 3 2 2 2 2 1 1 1 1 1 1 1 1 1 0 0 0 0 0 0 0 0
9 8 5 2 1 1 0 0 0 1 2 2 3 3 3 4 4 3 3 3 3 3 2 2 1 1 1 1 1 1 0 0 0 0 0 0 0 0
10 9 7 4 3 2 1 0 0 1 1 2 2 2 3 3 3 4 4 4 4 4 3 2 1 1 1 1 1 0 0 0 0 0 0 0 0 0
11 11 10 7 5 3 2 1 1 1 1 2 2 2 3 3 3 3 3 3 3 3 3 2 1 1 1 1 1 1 0 0 0 0 0 0 0 0
11 11 11 8 6 4 3 2 2 1 1 2 2 2 3 3 4 3 3 2 2 2 2 2 1 1 1 1 1 1 1 1 1 0 0 0 0 0
10 10 10 8 6 4 3 2 2 2 2 2 2 2 3 4 4 4 3 2 2 2 2 2 2 2 2 2 2 1 1 1 1 1 1 0 0 0
9 9 9 7 5 3 3 2 2 2 2 2 2 2 3 4 4 4 3 3 2 2 2 3 3 2 2 2 2 2 1 1 1 1 1 0 0 0
8 8 8 6 4 2 2 2 2 2 2 2 2 2 2 3 3 3 3 3 3 3 3 3 3 3 2 3 2 2 1 1 1 0 0 0 0 1
7 8 7 5 3 2 1 2 2 2 2 2 2 2 2 2 2 3 3 3 3 3 3 3 3 3 3 3 3 2 1 1 1 0 0 0 0 0
Wind_Speed
3 3 3 3 2 3 3 3 3 2 3 3 1 1 1 1 3 2 2 5 5 5 5 5 5 4 4 3 3 2 2 1 1 1 0 0 1 2
3 3 3 2 2 2 2 2 3 3 3 3 2 2 2 2 3 2 3 5 5 5 5 5 5 5 4 4 3 3 2 2 2 1 1 1 0 0
3 3 3 2 2 2 2 2 2 3 3 3 1 1 1 2 2 2 2 2 3 5 5 6 6 5 5 4 4 3 3 3 3 2 2 2 2 2
4 3 3 3 3 3 2 3 3 3 3 3 2 2 2 3 3 3 3 3 3 5 6 6 6 6 6 5 4 4 3 3 3 3 3 3 2 2
4 4 4 3 4 3 3 3 3 2 2 2 2 2 2 2 1 2 2 2 3 4 6 6 6 7 7 6 5 5 4 4 4 3 3 3 3 2
4 5 5 5 5 4 4 3 3 2 2 2 2 2 2 1 2 2 2 2 2 3 4 4 5 7 7 7 7 6 6 5 5 4 4 3 3 3
4 5 5 6 7 5 4 3 3 3 2 2 2 1 2 2 3 3 3 2 2 2 2 2 2 2 4 6 7 8 7 7 6 6 5 4 4 4
5 4 5 6 7 8 7 7 6 5 5 4 3 3 4 4 3 3 2 2 3 3 3 3 2 3 3 4 7 9 8 8 7 7 6 5 5 5
5 4 4 4 4 4 5 6 6 8 8 6 6 6 5 5 4 4 4 4 4 3 3 3 3 4 4 5 9 10 9 9 8 7 7 6 6 5
5 5 5 4 4 3 3 3 4 5 6 6 6 6 6 5 6 5 5 3 1 2 3 3 3 3 4 4 8 10 10 9 9 8 7 7 6 5
3 3 3 4 4 4 3 3 3 4 5 6 7 6 7 6 5 3 3 3 2 3 3 3 2 2 2 3 4 9 10 9 9 9 8 8 7 5
2 2 3 3 3 4 4 4 4 4 3 2 3 4 4 4 6 6 6 5 3 3 4 4 3 2 1 2 2 3 5 7 8 9 9 9 8 4
2 2 3 3 4 5 5 5 6 4 2 2 2 2 2 3 4 5 5 6 5 4 4 5 3 3 3 2 1 2 4 3 4 4 7 8 9 7
4 3 3 4 5 5 4 5 5 3 2 2 2 3 3 4 4 5 6 6 6 6 6 6 4 5 4 3 2 2 3 3 4 3 3 5 6 8
3 4 3 4 4 4 4 5 3 2 2 2 3 4 4 4 3 2 3 3 3 4 5 5 4 4 4 4 3 3 2 3 4 4 4 4 4 4
2 2 3 3 3 3 3 2 3 3 3 4 4 3 2 2 2 2 2 2 2 3 3 4 5 6 4 4 4 4 4 4 4 4 4 3 3 4
2 0 0 0 1 2 2 2 2 2 3 3 3 3 2 2 3 2 2 2 2 3 2 2 2 3 5 5 4 4 4 3 4 5 4 3 3 4
4 2 2 3 3 3 3 2 2 3 3 3 3 3 3 3 3 2 2 2 3 3 3 2 1 0 1 2 5 5 4 4 3 4 4 4 4 4
3 3 3 3 4 3 3 3 3 3 2 2 3 2 2 2 2 2 2 2 3 3 3 2 3 4 3 3 3 4 5 4 3 3 4 4 4 4
3 3 3 3 3 3 3 3 3 2 2 2 3 3 3 2 2 2 3 3 3 2 2 2 3 4 5 4 2 2 5 5 5 4 3 2 1 1
4 4 3 3 3 3 3 3 3 2 2 2 3 3 3 3 3 3 3 3 2 2 3 3 4 3 2 2 1 1 1 3 5 5 5 3 2 1
4 4 3 3 3 3 3 2 2 2 3 2 3 2 2 2 2 2 2 2 2 2 3 2 1 2 2 3 3 2 1 1 1 2 5 7 6 6
4 3 3 3 3 3 3 3 4 3 3 3 3 2 2 2 2 2 2 2 2 2 1 1 1 1 2 3 3 2 2 2 1 1 0 1 3 5
Wind_Direction
225 222 222 233 220 212 195 178 175 224 259 249 239 225 187 182 190 182 178 176 176 180 182 181 176 170 167 165 160 156 156 155 160 154 175 205 251 262
221 219 229 236 232 218 205 198 182 185 231 243 229 220 196 186 188 186 192 185 189 187 187 182 174 172 170 167 161 160 164 167 169 161 136 125 132 225
228 216 231 234 233 227 217 206 195 178 219 260 240 218 188 188 182 199 193 199 203 199 195 189 184 183 181 176 177 180 180 183 181 174 163 148 132 118
225 223 236 240 236 224 212 215 210 196 190 236 245 223 222 202 190 195 201 206 208 206 201 195 195 194 191 188 188 190 192 195 195 182 164 150 142 133
214 220 233 228 236 232 221 221 219 212 189 206 234 228 235 202 180 210 210 218 217 207 202 203 203 200 197 195 195 196 200 207 207 195 183 169 157 149
216 219 223 219 224 224 225 225 215 202 196 206 228 229 224 209 166 193 223 227 226 210 210 207 211 211 207 202 201 202 205 208 208 203 195 187 178 171
225 225 227 225 225 222 224 217 207 203 197 204 224 222 221 195 206 201 212 221 238 212 203 221 213 218 216 215 213 211 209 208 206 205 200 196 193 189
228 237 240 233 233 232 232 219 205 202 206 206 218 223 231 223 204 196 190 189 236 213 181 225 194 220 226 220 218 214 213 210 207 204 201 197 196 195
223 228 241 243 234 224 231 226 225 220 209 200 212 223 220 215 196 203 204 205 222 204 172 223 210 227 231 226 217 215 213 211 209 206 202 202 200 199
228 222 225 241 237 216 207 222 238 236 223 213 216 224 222 212 200 203 208 213 244 208 170 201 212 224 229 227 221 215 212 210 207 205 203 202 204 206
237 227 219 224 239 208 192 216 247 267 254 231 228 231 228 218 201 176 180 180 225 229 193 182 198 207 228 236 228 211 209 207 207 206 204 202 200 198
242 237 225 225 218 195 196 204 229 251 260 269 260 262 244 231 214 199 193 195 198 221 203 179 183 160 226 246 217 203 205 211 211 211 210 205 194 183
214 230 235 227 219 210 206 214 228 235 237 239 249 259 258 240 228 219 207 199 202 220 201 175 181 177 185 220 238 206 194 201 203 212 210 204 195 184
212 217 226 224 230 224 222 237 238 230 228 239 243 242 236 236 235 228 223 221 218 216 198 180 186 187 180 193 224 211 201 200 194 203 202 195 199 200
221 220 224 229 235 234 237 242 238 218 216 228 240 242 237 236 239 241 237 233 241 237 209 199 191 187 184 195 195 188 195 212 198 194 192 190 191 183
231 237 233 236 243 247 251 241 225 218 215 227 240 248 250 240 234 227 231 227 236 264 244 214 199 186 197 201 187 194 190 191 192 193 187 196 199 198
186 160 337 265 259 263 258 250 236 225 226 234 237 243 246 247 250 237 214 214 221 238 254 250 217 201 200 187 192 203 195 197 190 181 175 192 212 211
154 187 217 230 235 241 242 246 237 228 228 229 235 239 242 243 250 249 216 207 226 234 230 222 193 127 38 280 207 197 199 197 188 179 174 181 211 218
171 209 221 230 237 234 232 231 236 233 221 222 233 243 253 251 248 247 235 223 227 236 236 207 185 179 200 237 259 203 191 188 174 180 190 191 204 213
200 216 230 223 223 227 231 233 236 228 217 227 238 240 239 239 244 244 236 233 233 234 236 219 201 199 205 212 217 238 195 180 177 186 195 194 207 207
211 215 221 224 221 224 227 227 226 225 223 223 231 230 231 234 238 236 230 232 225 220 227 236 235 210 171 122 132 270 256 201 188 184 177 168 178 185
218 222 226 222 217 215 216 219 224 229 232 234 236 231 227 224 232 233 223 216 219 221 229 244 228 145 146 168 194 216 249 267 227 184 183 178 175 188
223 224 224 219 215 209 207 216 221 223 223 230 233 228 218 218 218 216 221 218 218 217 209 217 209 163 171 176 185 204 210 207 180 142 259 248 200 200